User: anonymous   Login
Location: Newark
(44.3248°N, 23.7839°E)
Time: 00:03:55
(UTC+00:00)
Language:

Gurwin Techsat 1B - Orbit

View from above orbital plane
View from above orbital plane
View from above satellite
View from above satellite

Ground track
Ground track

The orbit data is extracted from the following two-line orbital elements,

1 25397U 98043D   24114.50312729  .00000403  00000-0  19563-3 0  9995
2 25397  98.9175  80.4244 0001052  12.6083 347.5121 14.24023545339634
Epoch (UTC): 23 April 2024 12:04:30
Eccentricity: 0.0001052
inclination: 98.9175°
perigee height: 811 km
apogee height: 812 km
right ascension of ascending node: 80.4244°
argument of perigee: 12.6083°
revolutions per day: 14.24023545
mean anomaly at epoch: 347.5121°
orbit number at epoch: 33963

The dashed part of the orbit path shows where the satellite is in the earth's shadow,  

DLR